Stündliche Wetter Abadiânia

Heute, 22 Juni, Dienstag

Zeit Temperatur Niederschläge Wind Luftdruck Luftfeuchtigkeit
00:00 +19°C° 0 mm 1 m/S 679 mmHg 55%
01:00 +18°C° 0 mm 1 m/S 678 mmHg 57%
02:00 +18°C° 0 mm 1 m/S 678 mmHg 59%
03:00 +16°C° 0 mm 1 m/S 678 mmHg 61%
04:00 +16°C° 0 mm 1 m/S 678 mmHg 62%
05:00 +16°C° 0 mm 1 m/S 678 mmHg 64%
06:00 +16°C° 0 mm 1 m/S 678 mmHg 65%
07:00 +19°C° 0 mm 1 m/S 679 mmHg 59%
08:00 +21°C° 0 mm 1 m/S 680 mmHg 53%
09:00 +23°C° 0 mm 1 m/S 680 mmHg 47%
10:00 +25°C° 0 mm 2 m/S 681 mmHg 41%
11:00 +27°C° 0 mm 2 m/S 681 mmHg 36%
12:00 +29°C° 0 mm 3 m/S 681 mmHg 30%
13:00 +29°C° 0 mm 2 m/S 680 mmHg 29%
14:00 +29°C° 0 mm 2 m/S 679 mmHg 28%
15:00 +30°C° 0 mm 2 m/S 679 mmHg 26%
16:00 +28°C° 0 mm 2 m/S 678 mmHg 32%
17:00 +25°C° 0 mm 1 m/S 678 mmHg 37%
18:00 +21°C° 0 mm 0 m/S 678 mmHg 42%
19:00 +22°C° 0 mm 1 m/S 678 mmHg 44%
20:00 +21°C° 0 mm 1 m/S 678 mmHg 46%
21:00 +21°C° 0 mm 1 m/S 678 mmHg 48%
22:00 +20°C° 0 mm 1 m/S 678 mmHg 49%
23:00 +20°C° 0 mm 1 m/S 678 mmHg 50%

Morgen, 23 Juni, Mittwoch

Zeit Temperatur Niederschläge Wind Luftdruck Luftfeuchtigkeit
00:00 +19°C° 0 mm 1 m/S 678 mmHg 51%
01:00 +19°C° 0 mm 1 m/S 678 mmHg 52%
02:00 +19°C° 0 mm 1 m/S 677 mmHg 52%
03:00 +18°C° 0 mm 1 m/S 677 mmHg 53%
04:00 +18°C° 0 mm 1 m/S 677 mmHg 54%
05:00 +18°C° 0 mm 1 m/S 677 mmHg 55%
06:00 +16°C° 0 mm 1 m/S 677 mmHg 56%
07:00 +18°C° 0 mm 2 m/S 678 mmHg 52%
08:00 +20°C° 0 mm 2 m/S 679 mmHg 48%
09:00 +22°C° 0 mm 3 m/S 680 mmHg 44%
10:00 +25°C° 0 mm 3 m/S 680 mmHg 40%
11:00 +27°C° 0 mm 3 m/S 680 mmHg 36%
12:00 +29°C° 0 mm 4 m/S 680 mmHg 32%
13:00 +29°C° 0 mm 3 m/S 680 mmHg 31%
14:00 +29°C° 0 mm 3 m/S 679 mmHg 29%
15:00 +30°C° 0 mm 3 m/S 678 mmHg 27%
16:00 +28°C° 0 mm 2 m/S 678 mmHg 32%
17:00 +25°C° 0 mm 2 m/S 678 mmHg 37%
18:00 +23°C° 0 mm 1 m/S 677 mmHg 42%
19:00 +22°C° 0 mm 1 m/S 678 mmHg 44%
20:00 +22°C° 0 mm 1 m/S 678 mmHg 46%
21:00 +21°C° 0 mm 1 m/S 678 mmHg 49%
22:00 +20°C° 0 mm 1 m/S 678 mmHg 50%
23:00 +20°C° 0 mm 1 m/S 678 mmHg 52%

übermorgen, 24 Juni, Donnerstag

Zeit Temperatur Niederschläge Wind Luftdruck Luftfeuchtigkeit
00:00 +19°C° 0 mm 1 m/S 678 mmHg 54%
01:00 +19°C° 0 mm 1 m/S 678 mmHg 56%
02:00 +19°C° 0 mm 1 m/S 677 mmHg 57%
03:00 +18°C° 0 mm 1 m/S 677 mmHg 58%
04:00 +18°C° 0 mm 1 m/S 677 mmHg 60%
05:00 +18°C° 0 mm 1 m/S 677 mmHg 62%
06:00 +16°C° 0 mm 2 m/S 677 mmHg 64%
07:00 +18°C° 0 mm 2 m/S 678 mmHg 60%
08:00 +20°C° 0 mm 3 m/S 678 mmHg 57%
09:00 +22°C° 0 mm 4 m/S 679 mmHg 53%
10:00 +25°C° 0 mm 4 m/S 679 mmHg 47%
11:00 +27°C° 0 mm 4 m/S 679 mmHg 41%
12:00 +29°C° 0 mm 3 m/S 679 mmHg 35%
13:00 +30°C° 0 mm 3 m/S 679 mmHg 33%
14:00 +30°C° 0 mm 2 m/S 678 mmHg 30%
15:00 +30°C° 0 mm 2 m/S 678 mmHg 28%
16:00 +28°C° 0 mm 2 m/S 677 mmHg 33%
17:00 +26°C° 0 mm 1 m/S 677 mmHg 38%
18:00 +24°C° 0 mm 1 m/S 677 mmHg 43%
19:00 +23°C° 0 mm 1 m/S 677 mmHg 46%
20:00 +22°C° 0 mm 1 m/S 677 mmHg 48%
21:00 +21°C° 0 mm 1 m/S 678 mmHg 51%
22:00 +21°C° 0 mm 1 m/S 678 mmHg 53%
23:00 +20°C° 0 mm 1 m/S 677 mmHg 56%

25 Juni, Freitag

Zeit Temperatur Niederschläge Wind Luftdruck Luftfeuchtigkeit
00:00 +19°C° 0 mm 1 m/S 677 mmHg 59%
01:00 +19°C° 0 mm 1 m/S 677 mmHg 60%
02:00 +19°C° 0 mm 1 m/S 677 mmHg 61%
03:00 +19°C° 0 mm 1 m/S 676 mmHg 62%
04:00 +18°C° 0 mm 1 m/S 676 mmHg 62%
05:00 +18°C° 0 mm 1 m/S 677 mmHg 63%
06:00 +18°C° 0 mm 1 m/S 677 mmHg 64%
07:00 +20°C° 0 mm 1 m/S 678 mmHg 58%
08:00 +21°C° 0 mm 2 m/S 678 mmHg 52%
09:00 +24°C° 0 mm 2 m/S 679 mmHg 47%
10:00 +26°C° 0 mm 2 m/S 679 mmHg 42%
11:00 +28°C° 0 mm 2 m/S 679 mmHg 36%
12:00 +30°C° 0 mm 1 m/S 680 mmHg 31%
13:00 +30°C° 0 mm 1 m/S 679 mmHg 29%
14:00 +30°C° 0 mm 1 m/S 678 mmHg 28%
15:00 +31°C° 0 mm 2 m/S 678 mmHg 26%
16:00 +29°C° 0 mm 1 m/S 677 mmHg 30%
17:00 +26°C° 0 mm 1 m/S 677 mmHg 35%
18:00 +24°C° 0 mm 1 m/S 677 mmHg 39%
19:00 +23°C° 0 mm 1 m/S 677 mmHg 41%
20:00 +23°C° 0 mm 1 m/S 677 mmHg 42%
21:00 +22°C° 0 mm 1 m/S 678 mmHg 44%
22:00 +21°C° 0 mm 1 m/S 678 mmHg 47%
23:00 +21°C° 0 mm 1 m/S 678 mmHg 50%

26 Juni, Samstag

Zeit Temperatur Niederschläge Wind Luftdruck Luftfeuchtigkeit
00:00 +20°C° 0 mm 1 m/S 678 mmHg 53%
01:00 +19°C° 0 mm 1 m/S 677 mmHg 55%
02:00 +19°C° 0 mm 1 m/S 677 mmHg 56%
03:00 +18°C° 0 mm 1 m/S 677 mmHg 57%
04:00 +18°C° 0 mm 1 m/S 677 mmHg 56%
05:00 +18°C° 0 mm 1 m/S 677 mmHg 55%
06:00 +16°C° 0 mm 1 m/S 677 mmHg 54%
07:00 +18°C° 0 mm 2 m/S 678 mmHg 48%
08:00 +20°C° 0 mm 2 m/S 679 mmHg 42%
09:00 +22°C° 0 mm 3 m/S 680 mmHg 35%
10:00 +25°C° 0 mm 3 m/S 680 mmHg 31%
11:00 +27°C° 0 mm 3 m/S 680 mmHg 27%
12:00 +29°C° 0 mm 4 m/S 680 mmHg 23%
13:00 +29°C° 0 mm 4 m/S 679 mmHg 22%
14:00 +29°C° 0 mm 3 m/S 679 mmHg 21%
15:00 +30°C° 0 mm 3 m/S 678 mmHg 20%
16:00 +27°C° 0 mm 2 m/S 678 mmHg 25%
17:00 +25°C° 0 mm 2 m/S 677 mmHg 30%
18:00 +22°C° 0 mm 1 m/S 677 mmHg 34%
19:00 +21°C° 0 mm 1 m/S 677 mmHg 37%
20:00 +20°C° 0 mm 1 m/S 678 mmHg 39%
21:00 +19°C° 0 mm 1 m/S 678 mmHg 41%
22:00 +18°C° 0 mm 1 m/S 678 mmHg 43%
23:00 +18°C° 0 mm 1 m/S 678 mmHg 45%

27 Juni, Sonntag

Zeit Temperatur Niederschläge Wind Luftdruck Luftfeuchtigkeit
00:00 +16°C° 0 mm 1 m/S 678 mmHg 46%
01:00 +16°C° 0 mm 1 m/S 677 mmHg 47%
02:00 +16°C° 0 mm 1 m/S 677 mmHg 47%
03:00 +15°C° 0 mm 1 m/S 677 mmHg 47%
04:00 +15°C° 0 mm 1 m/S 677 mmHg 47%
05:00 +14°C° 0 mm 1 m/S 677 mmHg 47%
06:00 +14°C° 0 mm 1 m/S 677 mmHg 47%
07:00 +16°C° 0 mm 2 m/S 678 mmHg 43%
08:00 +18°C° 0 mm 2 m/S 679 mmHg 39%
09:00 +20°C° 0 mm 3 m/S 679 mmHg 36%
10:00 +22°C° 0 mm 3 m/S 680 mmHg 32%
11:00 +26°C° 0 mm 3 m/S 680 mmHg 28%
12:00 +28°C° 0 mm 3 m/S 680 mmHg 23%
13:00 +28°C° 0 mm 3 m/S 679 mmHg 22%
14:00 +29°C° 0 mm 2 m/S 679 mmHg 20%
15:00 +29°C° 0 mm 2 m/S 678 mmHg 19%
16:00 +27°C° 0 mm 2 m/S 678 mmHg 23%
17:00 +24°C° 0 mm 1 m/S 678 mmHg 28%
18:00 +22°C° 0 mm 1 m/S 677 mmHg 33%
19:00 +21°C° 0 mm 1 m/S 677 mmHg 34%
20:00 +20°C° 0 mm 1 m/S 678 mmHg 36%
21:00 +19°C° 0 mm 1 m/S 678 mmHg 38%
22:00 +18°C° 0 mm 1 m/S 678 mmHg 41%
23:00 +16°C° 0 mm 1 m/S 678 mmHg 43%
Mehr zeigen

Wir brauchen deine Erlaubnis

Meteoprog und unser Service Anbieter werden persönliche Daten aufbewahren, so wie Cookies, Geräte Bezeichnung oder ähnliche Technologien von deinem Gerät und Prozess, so wie Persönliche Daten Inhalte und Werbungen, genauso wie social Media und den Verkehr zu analysieren.

  • Aufbewahrung und/oder Zugang zu deiner Geräte Informationen.

    Cookies, Geräte Bezeichnung oder andere Informationen, können aufbewahrt oder Zugang zu deinem Gerät erhalten, für den Grund, der oben angegeben wird.

  • Personalisierte Werbung und Inhalte, Messungen, Einblick in das Publikum und Produkt Entwicklung.

    Werbungen und Inhalte können personalisiert werden, basierend auf ein Profil. Mehr Daten können besser personalisierte Werbungen und Inhalte hinzufügen. Werbung und Inhalte können gezeigt und gemessen werden. Einblicke über das Publikum, welche die Werbung gesehen haben und den Inhalt, können abgeleitet werden. So wie Daten können genutzt werden, um es zu verbessern oder die Benutzer Erfahrung zu verbessern das System und die Software.

Wenn du “Ich stimme zu” klickst, erlaubst du uns, die Cookies zu benutzen die Geräte Bezeichnung, den Web oder ähnliche Technologien zu benutzen. Deine Settings, können in deinem Gerät bei deinem Browser geändert werden.

Für den bestimmten Zweck, berechtigten Interessen beruhen darauf, mehr als auf den Inhalt. Du kannst mehr darüber in unseren Privaten und Cookie Politik lesen.